Top 250   HF   UTC   Spotter   Comment  
4U80FOC   14027.0   25 May 18:17   UR2LM   tnx QSO
OE100SGU   7028.7   25 May 18:17   YO6DDF   CQ CQ..SES
9A7DA   21074.9   25 May 18:17   PU2RDB   73 my friend ft8
EG8CM   21074.0   25 May 18:17   EA8JK   Especial call
4Z70IARC   14278.0   25 May 18:17   PY1TV   USB
OT70OCC   14290.0   25 May 18:17   PT2CSM   TKS
TM390SR   7094.0   25 May 18:16   G2ROI  
OT70HCC   14290.0   25 May 18:16   VE9RK   59 canada thanks
EA2EMO/P   3692.0   25 May 18:17   EA1BKO   vghu-201 dme-22150
EW4TT   10136.0   25 May 18:17   IK2QPR   FT8 qsl via IK2QPR
OK2VK/P   3746.0   25 May 18:16   OK2VK   OKFF-0464 QRP
OT70ARA   3607.0   25 May 18:16   ON7USB  
OL90ITALIA   14239.0   25 May 18:16   SV2OEL  
OT70WTO   3613.0   25 May 18:16   ON3JMV  
IZ1MLC   3645.0   25 May 18:16   IU3KGO   5 PT AW ENZO FERRARI
GB2FOC   14032.0   25 May 18:16   EA1TI  
OT70RCA   7137.0   25 May 18:16   YL2GP   total#59 tnx!!!
II1HKK   14192.0   25 May 18:16   OH3EYR   Thanks for Qso Mauro
OL90ITALIA   14239.0   25 May 18:16   G0AVH  
EH1EH   10111.1   25 May 18:16   IW3ILM  
IF9A   14040.0   25 May 18:15   SP8ARY   CORR CALL - SRI
RV3AMV   7138.7   25 May 18:15   R6DDL   tnx QSO 73!
9K2MU   14001.2   25 May 18:15   W6PU   Call correc
RC3Z   7088.5   25 May 18:15   RV6ALM   tnx QSO PW
OT70HRT   14265.0   25 May 18:15   PT2CSM   tks
EH1EH   10111.0   25 May 18:15   UX3MX   tnx qso
GB2FOC   14032.0   25 May 18:15   R4RA   CQ
OT70OCC   14290.0   25 May 18:15   UR5RCL   TNX TU EE
OT70GBN   14039.5   25 May 18:15   PD5SS  
WL7CG   14074.0   25 May 18:15   WB2NFL  
4Z80FOC   21025.0   25 May 18:15   LY5W   boooooming
OL90ITALIA   14239.0   25 May 18:14   US5FET   Loud in North Sea
OT70PHI   3635.0   25 May 18:14   ON3JMV  
YB1TJ   3573.0   25 May 18:14   UN7TK   FT8 -06dB Djoko
RC7M   1870.0   25 May 18:14   RA4HQG   TNX VIKTOR 73!
TA7MHZ   14203.0   25 May 18:14   DL1UPK   tnx QSO, 73 Uwe
IZ3GFZ   7110.0   25 May 18:14   IU8JCQ   DIPLOMA FERRARI
OT70RCA   7137.0   25 May 18:14   IU7GTP   tnx 73
EA3TO/P   7128.0   25 May 18:14   EA3BBJ   ultimas llamadas
TM390SR   7094.0   25 May 18:13   DG1RO   tnx patrick
ZA1E   7008.0   25 May 18:13   R7TQ   tnx QSO
OT70CRD   14262.0   25 May 18:13   WP4NIX   55 PR
EG8CM   14023.2   25 May 18:13   EA8TL   ses
VE7/LB9YH   21075.2   25 May 18:13   K6RC  
IB0/IK4RUX   10138.0   25 May 18:13   EA5DNO  
ZA1E   7008.0   25 May 18:13   SP4DNX  
R16JIG   18100.0   25 May 18:13   UA9JLL   FT8
RV6F   7041.6   25 May 18:13   RA4CON   BPSK63 vasiliy kapelnitsa
YR100R   7130.0   25 May 18:13   RN3GB   cq
TZ4AM   14007.5   25 May 18:13   UB1CBK   TNX QSO599+ TU 73
OL90ITALIA   14239.0   25 May 18:12   WA3LKT   TU Jiri.
OT70TLS   14200.0   25 May 18:12   SV2OEL  
HG2DX   14218.0   25 May 18:12   SV1SDA   tnx for QSO!!73
VK5PO   3573.0   25 May 18:12   DL3VDL   FT8 R-14
CT8/R9BB   14043.0   25 May 18:12   HA8BQ  
RC3Z   7088.5   25 May 18:12   R2ZJ   tnx QSO PW
K6YRA   14206.0   25 May 18:11   F1RAF   CA
OT70HRT   14265.0   25 May 18:11   VE9RK   59 canada thanks 73
OT70MCL   14274.0   25 May 18:11   ON3AWT   ses uba 70 years
A92AA   14075.0   25 May 18:11   LZ2NW   FT8 -13 dB
OT70RCA   7137.0   25 May 18:11   IU3KGO   TNX 73
OT70WTO   3613.0   25 May 18:11   F4HSU  
CT8/R9BB   14043.0   25 May 18:11   HA1YN   cq 73 and tu!
JM1TUY   14014.0   25 May 18:10   SP8ARY   NICE HR
IZ1MLC   3645.0   25 May 18:10   IZ1NBK   ARPI DIPLOMA ENZO FERRARI P.5
EA7DA   7097.0   25 May 18:11   EA7CT   ANFORA
5P1KZX   14074.0   25 May 18:11   LZ2NW   FT8 -3 dB
EH1EH   10111.0   25 May 18:11   EA1AOU   looking JA
RC7M   1870.0   25 May 18:10   RC7M   AKHTUBA--S.RAZIN--SHOLOKHOV
PY1CH   14000.0   25 May 18:10   PY1NP   Tirei o mic da caixa rsrs
K6YRA   14206.0   25 May 18:10   SV2CXI   i see yor ant.google maps
UB3YCJ   3711.0   25 May 18:10   UB3YCJ   M.SHOLOKHOV. M-DX.C.
E725SRRS   10107.0   25 May 18:09   UR8EZ   TNX
OK1VIE/P   3741.0   25 May 18:10   SP9TBT   OKFF 0222 73/44
PH80FOC   14022.3   25 May 18:10   K9QVB  
IW8ENL   7172.5   25 May 18:17   IU8CFS   Dip. c.o.t.a
IK2LTR   14076.0   25 May 18:10   EA5DNO  
II1ITR   7143.0   25 May 18:09   IK1RGK   RED TEND Info Qrz.Com
OT70RCA   7137.0   25 May 18:10   IU5ICR   TNX
SX80FOC   14045.0   25 May 18:09   R3QV   tnx QSO
5B80FOC   10112.7   25 May 18:09   HA0IL   TNX QSO
TZ4AM   14007.5   25 May 18:09   W4NDX   up 1
E7/9A4X   14014.5   25 May 18:09   K5XQ   579 into Alabama
R1CAV   14076.0   25 May 18:09   LZ2NW   FT8 -19 dB
KL2SB   14031.0   25 May 18:09   K7JF  
OT70TLS   14200.0   25 May 18:09   K2RD   OP IS ON4UN LOUD SIGS
PY1NP   14000.0   25 May 18:09   PY1CH   Fonia?73
OT70WLD   3641.0   25 May 18:09   ON4AUB  
OM3TWM   14287.0   25 May 18:09   EA4ESU   USBp
4Z80FOC   21025.0   25 May 18:09   SM1IUX   599 73
SP6QKS   14072.6   25 May 18:09   G8LZI   HELL, HELL At 18:07z wkg eb5dzc ...
TM390SR   14250.0   25 May 18:09   UA2DOP   tnx ses
OT70OCC   14290.0   25 May 18:09   PY1NP   Merci 73!
OT70NLB   3630.0   25 May 18:08   ON4ANL   UBA NLB
OX3XR   14035.5   25 May 18:09   R4RA   CQ
EB3WH   7090.0   25 May 18:09   IQ6KX   Award Star Wars 1p y 99
EB3WH   7090.0   25 May 18:09   IU3KGO   QRT
LY5W   21024.0   25 May 18:09   F8BCU  
OT70RSX   7099.9   25 May 18:09   ON2KMJ   CQ CQ 70 UBA
LZ2KV   21075.0   25 May 18:08   LZ2NW   FT8 -22 dB
YR100R   3707.0   25 May 18:08   YO9ILA  
W5RRR   14273.0   25 May 18:08   W0WTF   Johnson Space Ctr NASA
4U80FOC   14027.0   25 May 18:08   UK8IF   tnx QSO
ZA1A   7008.0   25 May 18:08   HA8BQ  
LZ2RS   28020.0   25 May 18:08   IZ5OVP   TNK
OT70HRT   14265.0   25 May 18:08   MI5AFK  
OT70GBN   14039.5   25 May 18:08   HA6VH  
RD4CAZ   7083.8   25 May 18:08   RD4CAZ   CQ TEST SA36
TA7MHZ   14203.0   25 May 18:08   TA3AIK   The correct call is that
TA7MHZ   14202.9   25 May 18:08   HA8AT   FB 59
CT8/R9BB   14043.0   25 May 18:07   DF6PB   eu175
YU1SU   7015.0   25 May 18:08   R7TQ   tnx QSO
YR100R   14074.0   25 May 18:08   YO9ILA  
R7MG   7109.5   25 May 18:08   UA3RKK   tnx QSO
OT70MCL   14274.3   25 May 18:07   SV2OEL  
DL80FOC   7011.0   25 May 18:07   DJ8CR  
R16JIG   7098.0   25 May 18:07   RN3GB   cq
OT70RCA   7137.0   25 May 18:07   2E0MNG   SES
SX80FOC   14045.0   25 May 18:07   SV1RUX   FOC 80TH ANNIVERSARY
OT70OCC   14290.0   25 May 18:07   PY1CH   tnx 73
OL90ITALIA   14239.0   25 May 18:07   W6LG  
IZ0TWI   7157.0   25 May 18:07   9A1ZZ   C.OT.A.
4U80FOC   14027.0   25 May 18:07   HA6VH  
OT70CRD   14262.0   25 May 18:07   UK8IF   tnx QSO
UA4CIF   7020.4   25 May 18:06   R7CA  
TA7P   21075.0   25 May 18:06   LZ2NW   FT8 -6 dB
K4VBM   28074.0   25 May 18:06   VE3PV   FT-8, GA
UT3UCB/P   7175.0   25 May 18:05   UT4URO   cq cq cq
PF2018BOL   10108.0   25 May 18:05   HA0IL   TNX QSO
OT70TLS   14200.0   25 May 18:06   ON4UN   SES
LA1KUA   14076.0   25 May 18:05   EA5DNO  
OK1VEI/P   3741.0   25 May 18:05   OK1VUX   OKFF-0222
K7JF   14031.0   25 May 18:05   RU9SA   cq cq cq
K6YRA   14206.0   25 May 18:05   SP5IT   CQ from CA
SP6QKS   14072.7   25 May 18:05   EB5DZC   HELL
OT70PHI   3635.0   25 May 18:05   F4HSU  
UK9AA   21075.0   25 May 18:05   LZ2NW   FT8 -8 dB
TA7P   21074.0   25 May 18:05   F8IJV   Tks FT8
CX8TC   14270.0   25 May 18:04   YL2CQ   CQ
HG2DX   14218.0   25 May 18:04   WA3LKT   TU Joe.
RY7G   21074.0   25 May 18:05   LZ2NW   FT8 +0 dB
E7/9A4X   14014.5   25 May 18:05   UK8IF   tnx QSO
SP7HKK   3715.0   25 May 18:05   SQ5OMO  
YU1EA   3520.0   25 May 18:05   YT1AA   cq
JO1WXO   14020.0   25 May 18:04   HA6OI   strong
EA8JK   21075.0   25 May 18:04   LZ2NW   FT8 -15 dB
W6VAH   14247.0   25 May 18:04   KK4KHS   USB
IZ8DFO   14000.0   25 May 18:04   IK8DDN   CHIAMAMI
UA4CA   7134.5   25 May 18:04   RA4SAL   tnx QSO
OT70WTO   3613.0   25 May 18:04   ON5BWE   70 years UBA
EA3NW   21075.0   25 May 18:04   LZ2NW   FT8 +3 dB
RM3G   7028.0   25 May 18:04   LX7I  
EA3NW   21075.0   25 May 18:04   LZ2NW   FT8 -9 dB
OT70WTO   3613.0   25 May 18:04   ON4CBN  
JO1LVZ   14074.0   25 May 18:04   IZ2EWN   tnx 73 Ciao.
OT70RSX   14018.0   25 May 18:04   HA6VH  
TA7MHJ   14203.0   25 May 18:04   TA3AIK   Cq dx
PF2018BOL   10108.0   25 May 18:04   RK7C   tnx QSO
OT70TLS   7110.0   25 May 18:03   ON4UN   SES
RV3AMV   7138.7   25 May 18:03   UA3LTM   PW
YU1SU   7015.0   25 May 18:03   YT1T   Awards PW & 5 Okean
OX3XR   14035.5   25 May 18:03   K9QVB  
OT70RSX   14018.0   25 May 18:03   ON6QO   UBA 70 YEARS
OK2VK/P   3746.0   25 May 18:03   OK2VK   OKFF-0464
TZ4AM   14007.5   25 May 18:03   HA6VH  
EV5O   14012.0   25 May 18:03   UK8IF   tnx QSO
EA3CV   14071.0   25 May 18:02   EA1BKO   eaff-0095 psk63
OT70DST   14295.0   25 May 18:02   ON8PTZ   Special event call
UA4AAC   7011.9   25 May 18:02   DL5SE  
4L1MA   28075.0   25 May 18:02   LZ2NW   FT8 -15 dB
PH80FOC   14022.3   25 May 18:02   K6YK  
R1630SR   1920.0   25 May 18:02   R1630SR   tnx QSO
PF2018BOL   10108.0   25 May 18:02   UR2LM   tnx QSO
ZB2RAF   14003.0   25 May 18:01   W3LPL   Heard in NC
CX8TC   14270.0   25 May 18:01   YO7MPD   TNX FOR 5/9 MR. WILLY !
EA3NT/M   7060.0   25 May 18:01   EA1ATH   USB dme-43134
4Z70IARC   14278.0   25 May 18:01   SV2OEL  
R6AW   7086.0   25 May 18:01   UA4FOH   tnx QSO
UA3FQ   7101.5   25 May 18:01   R5AP   PW+5 Ocean
II1HKK   14192.0   25 May 18:01   IZ1BDQ   special call
YU1SU   7015.0   25 May 18:01   HA6VH  
DM80FOC   14025.3   25 May 18:01   K9QVB  
8J1ITU   14004.0   25 May 18:01   DD9WL   up 1.5
EA3TO/P   3707.0   25 May 18:01   EA3BBJ   ENCAT-070 EAFF-0647 DME-25135
EA7TES   14039.0   25 May 18:01   SV1GRN  
TI8II   18104.1   25 May 18:01   W3LPL   RTTY Heard in MD and MA
EB3WH   7090.0   25 May 18:00   IU4JGS   Tnx Award Star Wars 1p 73!
IZ0TWI   7157.0   25 May 18:00   IZ0TWI   14 COTA
SF80FOC   10119.0   25 May 18:00   YO6CFB   cq and correct freq
TA7MHJ   14203.0   25 May 18:00   SP3UQX   tnx QSOvy73
FS/KH8Z   21074.0   25 May 18:00   PU2KNM   FT8
N3RS   14025.0   25 May 18:00   K9QVB  
E725SRRS   10106.9   25 May 17:59   RM4D  
VP5/K4BAI   18084.1   25 May 18:00   W3LPL   Heard in MA and PA
OT70CRD   14262.0   25 May 18:00   NK3Y  
EA2EMO/P   7046.0   25 May 17:59   EC5ALJ   DIGITALES , VGHU- 201
4Z70IARC   14278.0   25 May 17:59   DG1KM   73
DM80FOC   14025.2   25 May 17:59   R3QV   tnx QSO
KL7XSS   14007.0   25 May 17:59   9A9CW   tnx for qso
E7/9A4X   14014.5   25 May 17:59   K7JF  
OT70HCC   14290.0   25 May 17:59   PY5WW   tnx qso
PF2018BOL   10108.0   25 May 17:59   PA0MBD   QSYed
9K2MU   14001.0   25 May 17:58   N8ZI   TNX QSO MURTADA
OT70MLB   14196.0   25 May 17:58   A61FK   TNX 59+ 73
OT70RCA   7137.0   25 May 17:58   ON4JM  
KP3IV   18100.0   25 May 17:58   IZ4TNN   FT8
RN6LOP   14225.0   25 May 17:57   RN6LOP   tnx QSO
OM5TZ   14072.7   25 May 17:57   EB5DZC   HELL Zoli
SP1NY   14017.0   25 May 17:57   W6PU   Mirek KW 589 Eu Fading
OT4A   14200.0   25 May 17:57   PT2CSM   TKS
SF8OFOC   10111.1   25 May 17:57   UK8IF   tnx QSO
OH2MDN   14074.2   25 May 17:57   WA2S  
DL1YCF   18102.0   25 May 17:57   EA5DNO  
Z37CXY   18100.9   25 May 17:57   UY5AX   tnx QSO FT8 73
DL1YCF   10138.0   25 May 17:56   EA5DNO  
YR100R   10115.9   25 May 17:56   SP4DNX  
OK1VEI/P   3741.0   25 May 17:56   OL1W   OK-0222
R7DN   7167.0   25 May 17:56   R7DN   cq cq cq
KW4GF   14210.0   25 May 17:56   AE4TG   strong into Florida. 100 watt
IU1CYA   7148.0   25 May 17:55   IQ1QQ   enzo ferrari award
4Z70IARC   14278.0   25 May 17:55   F4HGM   Tnx 73 Good Luck.
PA3GEG   3685.0   25 May 17:55   DJ7PRM   LSB
EV5O   14012.0   25 May 17:55   K7JF  
OT70HCC   14290.0   25 May 17:55   R2DRH   tnx QSO
KL7RRC/P   14040.0   25 May 17:55   CT1EEB   Where did he go?
EV5O   14012.0   25 May 17:55   K6YK  
PF2018BOL   14010.0   25 May 17:55   PA0MBD   Sri qsw QRM E74x
IW6ATQ   3763.0   25 May 17:55   IQ6KX   STAR WARS AWARD info IQ6KX
LA8OM   14020.2   25 May 17:55   K6YK  
R0LS/P   14008.0   25 May 17:55   DL7JAN   AS066 CQ
EV5O   14012.0   25 May 17:55   EA7CB  
SV9IOI   14242.0   25 May 17:55   EA7IU   cq
VE9DX   28074.0   25 May 17:54   WD8JP  
R16JIG   7098.0   25 May 17:54   UR2LM   tnx QSO
SV3CIX   10137.0   25 May 17:54   EA5DNO  
TI8II   18082.0   25 May 17:54   IZ8EQF   sri
IW2FLB   7190.0   25 May 17:54   IT9JGX  
PA0A   14258.0   25 May 17:54   HA7AJ   TNx Albert QRM!
II1ITR   7122.0   25 May 17:54   IK2IQJ   Nobile90
ZB2RAF   14006.2   25 May 17:53   W3LPL   Heard in PA
CU3EQ   28074.0   25 May 17:53   PY5OD   FT8 73 obrigado
K6YRA   14206.0   25 May 17:53   M0KPD   Cq Europe....SWL qsb 5/4......waiting for better condition to UK Al! 73
RD4CAZ   3629.0   25 May 17:53   RD4CAZ   CQ TEST SA36
EA5IKJ   14188.0   25 May 17:53   EA4ESU   USBp
IW2FLB   7190.0   25 May 17:53   IZ2TVT   COTA
IU8DFD   7172.5   25 May 17:53   IW8ENL   c.o.t.a. 14 award - 2 staz.
F1MWV   10137.0   25 May 17:53   EA5DNO  
OT70TLS   7020.0   25 May 17:52   ON4UN   SES
RC7M   3714.0   25 May 17:52   RC7M   S.RAZIN-AKHTUBA--M.SHOLOKHOV
OT70HCC   14298.0   25 May 17:52   PT2CSM   TKS